Location: Newark
(58.8333°N, 23.5833°E)
Time: 04:05:37
(UTC+00:00)

A-11 Canister half - Pass Details

Date: 22 November 2019
Orbit: 1515 x 1685 km, 47.2° (Epoch: 12 December)

Event Time Altitude Azimuth Distance (km) Brightness Sun altitude
Rises 19:01:07 0° 262° (W) 4,925 12.3 -38.5°
Reaches altitude 10° 19:04:29 10° 256° (WSW) 3,945 11.6 -38.9°
Enters shadow 19:11:51 39° 214° (SW) 2,361 9.8 -39.7°
Maximum altitude 19:13:42 42° 191° (S) 2,267 - -39.9°
Drops below altitude 10° 19:22:52 10° 125° (SE) 3,920 - -40.9°
Sets 19:26:12 0° 119° (ESE) 4,891 - -41.3°
